(2020 VA5) |
Classification: Apollo [NEO] SPK-ID: 54087831 |
[ hide orbit diagram ]
For accurate long-term ephemerides, please instead use our Horizons system.This orbit viewer was implemented using two-body methods, and hence should not be used for determining accurate long-term trajectories (over several years or decades) or planetary encounter circumstances.
Orbital Elements at Epoch 2459168.5 (2020-Nov-15.0) TDB
Reference: JPL 1 (heliocentric ecliptic J2000)
Element | Value | Uncertainty (1-sigma) | Units |
e | .616029338727634 | 0.0010016 | |
a | 2.470162916223891 | 0.0063382 | au |
q | .9484700883929635 | 4.4422e-05 | au |
i | 1.826035537393759 | 0.0023198 | deg |
node | 227.1845955919824 | 0.0011939 | deg |
peri | 217.4741460475018 | 0.0067282 | deg |
M | 353.8624298083152 | 0.025361 | deg |
tp | 2459192.675796664197 (2020-Dec-09.17579666) | 0.0076578 | TDB |
period | 1418.034584908241 3.88 | 5.4578 0.01494 | d yr |
n | .2538725104672219 | 0.00097712 | deg/d |
Q | 3.991855744054819 | 0.010243 | au |
|
| | Orbit Determination Parameters
Additional Information
|
[ show covariance matrix ]
Physical Parameter Table
Parameter |
Symbol |
Value |
Units |
Sigma |
Reference |
Notes |
absolute magnitude |
H |
27.221 |
|
.60077 |
1 |
autocmod 2.8 |
|
[ show close-approach data ]
|